Главная страница
METAR-TAF:

METAR-TAF

Аэропорты :

Winchester Regional Airport

Винчестер, Виргиния, США

широта: 39-09N, долгота: 078-09W, высота над уровнем моря: 222 м

Текущие метеонаблюдения

Эта сводка был подготовлена 15 минут назад, в 13:55 UTC
Ветер 5 Узел от южный
Температура 16°C
Влажность 82%
Давление 1000 hPa
Видимость: 16.1 км
Сплошная облачность на высоте 9500 фута

METAR: KOKV 261355Z AUTO 17005KT 10SM OVC095 16/13 A2952 RMK AO2

Время: 10:10 (14:10 UTC)


TAF: отсутствует

Метеонаблюдения и прогнозы для более 4000 аэропортов (сводки METAR и TAF).

Имеющиеся станции представлены на карте желтыми и красными точками.

Чтобы увидеть название станции, наведите на нее мышь.

Затем щелкните, чтобы увидеть метеонаблюдения и метеопрогнозы.

Управление картой: чтобы увеличить масштаб, щелкните зеленые кнопки с черным крестиком; чтобы уменьшить масштаб, щелкните зеленую кнопку с тире; для просмотра соседних карт щелкайте зеленые стрелки.


METAR-TAF: